Location: Key Biscayne
(25.6930°N, 80.1630°W)
Time: 08:08:12
(UTC-04:00)

CZ-2D R/B - Visible Passes

Search period start: 30 June 2016 00:00
Search period end: 10 July 2016 00:00
Orbit: 525 x 544 km, 97.5° (Epoch: 29 June)

Date Brightness Start Highest point End Pass type
(mag) Time Alt. Az. Time Alt. Az. Time Alt. Az.
30 Jun 4.6 21:28:22 10° SSW 21:31:59 38° W 21:35:36 10° NNW visible
01 Jul 4.0 21:19:06 10° S 21:22:53 52° W 21:26:39 10° NNW visible
02 Jul 3.4 21:09:56 10° S 21:13:47 73° W 21:17:38 10° NNW visible
03 Jul 3.2 21:00:51 10° SSE 21:04:42 81° ENE 21:08:33 10° N visible
04 Jul 3.4 20:51:50 10° SSE 20:55:37 58° ENE 20:59:24 10° N visible
05 Jul 3.7 20:42:54 10° SSE 20:46:34 42° ENE 20:50:12 10° N visible
06 Jul 6.3 22:11:06 10° WSW 22:11:54 10° W 22:12:41 10° W visible
07 Jul 6.0 22:00:38 10° SW 22:02:45 14° W 22:04:52 10° WNW visible
08 Jul 5.7 21:50:50 10° SW 21:53:37 19° W 21:56:24 10° NW visible
09 Jul 5.3 21:41:17 10° SSW 21:44:29 25° W 21:47:41 10° NW visible
